Punta Cana, Dominican Republic

1:05 PM AST on September 26, 2017 (GMT -0400)
Punta Cana International

Weather History for MDPC - December, 2013

Change the Weather History Date:

Wednesday, December 4, 2013

  Actual Average Record
Temperature  
Mean Temperature 78 °F -  
Max Temperature 84 °F 82 °F 87 °F (2015)
Min Temperature 71 °F 73 °F 64 °F (2010)
Cooling Degree Days 12    
Growing Degree Days 28 (Base 50)    
Moisture  
Dew Point 73 °F    
Average Humidity 91    
Maximum Humidity 100    
Minimum Humidity 78    
Precipitation  
Precipitation 0.00 in - - ()
Sea Level Pressure  
Sea Level Pressure 30.01 in    
Wind  
Wind Speed 4 mph ()    
Max Wind Speed 9 mph    
Max Gust Speed -    
Visibility 6.3 miles    
Events Rain , Thunderstorm    
Averages and records for this station are not official NWS values.
T = Trace of Precipitation, MM = Missing Value Source: Averaged Metar Reports

Daily Weather History Graph

Daily Weather History Graph

Search for Another Location

Airport or City:

Trip Planner

Search our weather history database for the weather conditions in past years. The results will help you decide how hot, cold, wet, or windy it might be!

Date:

Astronomy

Dec. 04, 2013 Rise Set
Actual Time 6:51 AM AST 5:56 PM AST
Civil Twilight 6:27 AM AST 6:19 PM AST
Nautical Twilight 6:00 AM AST 6:46 PM AST
Astronomical Twilight 5:34 AM AST 7:13 PM AST
Moon 8:21 AM AST (12/4) 7:55 PM AST (12/4)
Length of Visible Light 11h 51m
Length of Day
11h 04m
Waxing Crescent, 4% of the Moon is Illuminated
Dec 4
Waxing Crescent
Dec 9
First Quarter
Dec 17
Full
Dec 25
Last Quarter
Jan 1
New

Hourly Weather History & Observations

Time (AST) Temp. Dew Point Humidity Pressure Visibility Wind Dir Wind Speed Gust Speed Precip Events Conditions
12:00 AM 75.2 °F 73.4 °F 94% 30.01 in 6.2 mi NNW 4.6 mph - N/A   Scattered Clouds
1:00 AM 75.2 °F 73.4 °F 94% 29.98 in 4.3 mi ENE 5.8 mph - N/A   Mostly Cloudy
2:00 AM 73.4 °F 71.6 °F 94% 29.98 in 4.3 mi SE 6.9 mph - N/A   Mostly Cloudy
3:00 AM 73.4 °F 71.6 °F 94% 29.95 in 6.2 mi East 6.9 mph - N/A   Mostly Cloudy
4:00 AM 73.4 °F 71.6 °F 94% 29.98 in 6.2 mi East 6.9 mph - N/A   Mostly Cloudy
5:00 AM 73.4 °F 71.6 °F 94% 29.98 in 4.3 mi North 4.6 mph - N/A Rain , Thunderstorm Light Thunderstorms and Rain
6:00 AM 73.4 °F 71.6 °F 94% 29.98 in 4.3 mi Calm Calm - N/A Rain , Thunderstorm Light Thunderstorms and Rain
7:00 AM 71.6 °F 71.6 °F 100% 30.01 in 4.3 mi Calm Calm - N/A Rain , Thunderstorm Light Thunderstorms and Rain
8:00 AM 72 °F 72 °F 100% 30.02 in 10 mi Calm Calm - - Thunderstorm Light Thunderstorm
8:00 AM 73.4 °F 71.6 °F 94% 30.01 in 6.2 mi Calm Calm - N/A   Mostly Cloudy
9:00 AM 73.4 °F 73.4 °F 100% 30.06 in 4.3 mi Calm Calm - N/A Rain Light Rain
10:00 AM 75.2 °F 75.2 °F 100% 30.06 in 5.0 mi Calm Calm - N/A Rain Rain
11:00 AM 74 °F 72 °F 93% 30.09 in 5 mi ENE 6.7 mph - - Rain Light Rain
11:00 AM 73.4 °F 71.6 °F 94% 30.06 in 5.0 mi ENE 6.9 mph - N/A Rain Light Rain
12:00 PM 75.2 °F 73.4 °F 94% 30.06 in 5.0 mi East 6.9 mph - N/A Rain Light Rain
1:00 PM 78.8 °F 71.6 °F 78% 30.04 in 6.2 mi SSE 5.8 mph - N/A   Mostly Cloudy
2:00 PM 78 °F 73 °F 79% 30.03 in 10 mi South 8.9 mph - -   Partly Cloudy
2:00 PM 77.0 °F 73.4 °F 89% 30.01 in 6.2 mi South 9.2 mph - N/A   Mostly Cloudy
3:00 PM 78.8 °F 73.4 °F 83% 29.98 in 6.2 mi Variable 3.5 mph - N/A   Mostly Cloudy
4:00 PM 78.8 °F 73.4 °F 83% 29.98 in 6.2 mi Variable 3.5 mph - N/A   Mostly Cloudy
5:00 PM 78 °F 74 °F 82% 29.99 in 10 mi 4.5 mph - -   Partly Cloudy
5:00 PM 78.8 °F 73.4 °F 83% 29.98 in 6.2 mi Variable 3.5 mph - N/A   Mostly Cloudy
6:00 PM 77.0 °F 75.2 °F 94% 29.98 in 6.2 mi Variable 3.5 mph - N/A   Mostly Cloudy
7:00 PM 77.0 °F 73.4 °F 89% 30.01 in 6.2 mi Calm Calm - N/A   Mostly Cloudy
8:00 PM 78 °F 74 °F 84% 30.01 in 10 mi Calm Calm - -   Mostly Cloudy
8:00 PM 78.8 °F 73.4 °F 83% 30.01 in 6.2 mi Calm Calm - N/A   Mostly Cloudy
9:00 PM 77.0 °F 73.4 °F 89% 30.01 in 6.2 mi ENE 5.8 mph - N/A   Mostly Cloudy
10:00 PM 78.8 °F 73.4 °F 83% 30.04 in 6.2 mi Variable 3.5 mph - N/A   Mostly Cloudy
11:00 PM 77 °F 74 °F 89% 30.04 in 10 mi 4.5 mph - -   Mostly Cloudy
11:00 PM 77.0 °F 75.2 °F 94% 30.04 in 6.2 mi Variable 3.5 mph - N/A   Mostly Cloudy